When you browse on this site, cookies collect data to enhance your experience and personalize the content and advertising you see.
Visit our Privacy Policy to learn more. By continuing to use the site, you agree to this use of cookies and data.
EN

Hourly Weather Pivdenne

Today, 16 July, Thursday

Time Temperature Precipitation Wind Pressure Humidity
00:00 +18°C° 0 mm 2 mps 756 mmHg 58%
01:00 +19°C° 0 mm 1 mps 756 mmHg 60%
02:00 +17°C° 0 mm 2 mps 756 mmHg 59%
03:00 +18°C° 0 mm 1 mps 756 mmHg 59%
04:00 +19°C° 0 mm 1 mps 756 mmHg 59%
05:00 +19°C° 0 mm 1 mps 756 mmHg 59%
06:00 +21°C° 0 mm 1 mps 756 mmHg 53%
07:00 +23°C° 0 mm 1 mps 756 mmHg 46%
08:00 +26°C° 0 mm 1 mps 756 mmHg 40%
09:00 +27°C° 0 mm 2 mps 756 mmHg 36%
10:00 +28°C° 0 mm 2 mps 756 mmHg 33%
11:00 +29°C° 0 mm 2 mps 756 mmHg 29%
12:00 +29°C° 0 mm 2 mps 755 mmHg 29%
13:00 +30°C° 0 mm 3 mps 755 mmHg 29%
14:00 +30°C° 0 mm 3 mps 755 mmHg 29%
15:00 +29°C° 0 mm 3 mps 755 mmHg 31%
16:00 +29°C° 0 mm 3 mps 754 mmHg 34%
17:00 +28°C° 0 mm 4 mps 754 mmHg 36%
18:00 +26°C° 0 mm 3 mps 754 mmHg 41%
19:00 +25°C° 0 mm 2 mps 754 mmHg 46%
20:00 +23°C° 0 mm 1 mps 754 mmHg 51%
21:00 +23°C° 0 mm 1 mps 754 mmHg 52%
22:00 +21°C° 0 mm 2 mps 754 mmHg 53%
23:00 +21°C° 0 mm 3 mps 754 mmHg 54%

Tomorrow, 17 July, Friday

Time Temperature Precipitation Wind Pressure Humidity
00:00 +21°C° 0 mm 3 mps 754 mmHg 56%
01:00 +20°C° 0 mm 3 mps 754 mmHg 57%
02:00 +20°C° 0 mm 3 mps 754 mmHg 59%
03:00 +20°C° 0 mm 3 mps 754 mmHg 59%
04:00 +20°C° 0 mm 3 mps 753 mmHg 58%
05:00 +20°C° 0 mm 3 mps 753 mmHg 58%
06:00 +22°C° 0 mm 4 mps 753 mmHg 53%
07:00 +25°C° 0 mm 4 mps 754 mmHg 49%
08:00 +26°C° 0 mm 4 mps 754 mmHg 44%
09:00 +27°C° 0 mm 4 mps 754 mmHg 42%
10:00 +28°C° 0 mm 5 mps 754 mmHg 41%
11:00 +29°C° 0 mm 5 mps 754 mmHg 40%
12:00 +29°C° 0 mm 5 mps 754 mmHg 41%
13:00 +29°C° 0 mm 5 mps 754 mmHg 43%
14:00 +28°C° 0 mm 5 mps 754 mmHg 44%
15:00 +28°C° 0 mm 5 mps 754 mmHg 45%
16:00 +28°C° 0 mm 5 mps 754 mmHg 46%
17:00 +28°C° 0 mm 4 mps 754 mmHg 47%
18:00 +26°C° 0 mm 4 mps 754 mmHg 54%
19:00 +25°C° 0 mm 4 mps 754 mmHg 61%
20:00 +22°C° 0 mm 3 mps 754 mmHg 68%
21:00 +21°C° 0 mm 3 mps 755 mmHg 73%
22:00 +20°C° 0 mm 3 mps 755 mmHg 78%
23:00 +19°C° 0 mm 3 mps 755 mmHg 83%

Day after tomorrow, 18 July, Saturday

Time Temperature Precipitation Wind Pressure Humidity
00:00 +19°C° 0 mm 3 mps 755 mmHg 84%
01:00 +19°C° 0 mm 3 mps 755 mmHg 86%
02:00 +18°C° 0 mm 3 mps 755 mmHg 88%
03:00 +18°C° 0 mm 3 mps 755 mmHg 87%
04:00 +18°C° 0 mm 4 mps 755 mmHg 86%
05:00 +18°C° 0 mm 4 mps 755 mmHg 86%
06:00 +20°C° 0 mm 4 mps 756 mmHg 77%
07:00 +22°C° 0 mm 5 mps 756 mmHg 69%
08:00 +25°C° 0 mm 5 mps 756 mmHg 61%
09:00 +26°C° 0 mm 5 mps 756 mmHg 58%
10:00 +27°C° 0 mm 6 mps 756 mmHg 54%
11:00 +28°C° 0 mm 6 mps 756 mmHg 50%
12:00 +28°C° 0 mm 6 mps 756 mmHg 50%
13:00 +28°C° 0 mm 6 mps 756 mmHg 51%
14:00 +28°C° 0 mm 6 mps 756 mmHg 51%
15:00 +28°C° 0 mm 5 mps 755 mmHg 52%
16:00 +28°C° 0 mm 5 mps 755 mmHg 52%
17:00 +28°C° 0 mm 5 mps 755 mmHg 53%
18:00 +27°C° 0 mm 4 mps 755 mmHg 56%
19:00 +26°C° 0 mm 4 mps 755 mmHg 59%
20:00 +25°C° 0 mm 3 mps 756 mmHg 62%
21:00 +23°C° 0 mm 4 mps 756 mmHg 65%
22:00 +23°C° 0 mm 4 mps 756 mmHg 68%
23:00 +22°C° 0 mm 4 mps 756 mmHg 71%

19 July, Sunday

Time Temperature Precipitation Wind Pressure Humidity
00:00 +21°C° 0 mm 5 mps 756 mmHg 72%
01:00 +21°C° 0 mm 5 mps 756 mmHg 74%
02:00 +20°C° 0 mm 5 mps 756 mmHg 75%
03:00 +20°C° 0 mm 5 mps 756 mmHg 75%
04:00 +20°C° 0 mm 5 mps 756 mmHg 76%
05:00 +20°C° 0 mm 5 mps 756 mmHg 76%
06:00 +22°C° 0 mm 5 mps 756 mmHg 68%
07:00 +23°C° 0 mm 5 mps 756 mmHg 60%
08:00 +26°C° 0 mm 6 mps 756 mmHg 52%
09:00 +27°C° 0 mm 6 mps 755 mmHg 49%
10:00 +29°C° 0 mm 6 mps 755 mmHg 46%
11:00 +30°C° 0 mm 6 mps 755 mmHg 43%
12:00 +32°C° 0 mm 6 mps 755 mmHg 43%
13:00 +32°C° 0 mm 6 mps 755 mmHg 42%
14:00 +32°C° 0 mm 6 mps 754 mmHg 42%
15:00 +32°C° 0 mm 5 mps 754 mmHg 42%
16:00 +32°C° 0 mm 5 mps 754 mmHg 42%
17:00 +30°C° 0 mm 4 mps 754 mmHg 42%
18:00 +29°C° 0 mm 4 mps 754 mmHg 44%
19:00 +28°C° 0 mm 4 mps 754 mmHg 47%
20:00 +27°C° 0 mm 4 mps 754 mmHg 50%
21:00 +27°C° 0 mm 4 mps 754 mmHg 51%
22:00 +26°C° 0 mm 4 mps 754 mmHg 52%
23:00 +26°C° 0 mm 4 mps 754 mmHg 53%

20 July, Monday

Time Temperature Precipitation Wind Pressure Humidity
00:00 +25°C° 0 mm 4 mps 754 mmHg 53%
01:00 +25°C° 0 mm 4 mps 754 mmHg 53%
02:00 +23°C° 0 mm 4 mps 754 mmHg 53%
03:00 +23°C° 0 mm 4 mps 754 mmHg 53%
04:00 +23°C° 0 mm 4 mps 753 mmHg 53%
05:00 +23°C° 0 mm 4 mps 753 mmHg 53%
06:00 +26°C° 0 mm 4 mps 753 mmHg 49%
07:00 +28°C° 0 mm 5 mps 753 mmHg 44%
08:00 +30°C° 0 mm 5 mps 753 mmHg 40%
09:00 +32°C° 0 mm 5 mps 753 mmHg 39%
10:00 +33°C° 0 mm 4 mps 753 mmHg 38%
11:00 +33°C° 0 mm 4 mps 753 mmHg 37%
12:00 +33°C° 0 mm 4 mps 753 mmHg 38%
13:00 +33°C° 0 mm 4 mps 753 mmHg 40%
14:00 +32°C° 0 mm 4 mps 752 mmHg 41%
15:00 +32°C° 0 mm 4 mps 752 mmHg 41%
16:00 +31°C° 0 mm 3 mps 752 mmHg 42%
17:00 +30°C° 0 mm 3 mps 752 mmHg 42%
18:00 +29°C° 0 mm 3 mps 752 mmHg 47%
19:00 +28°C° 0 mm 3 mps 752 mmHg 51%
20:00 +27°C° 0 mm 2 mps 752 mmHg 56%
21:00 +26°C° 0.2 mm 3 mps 752 mmHg 59%
22:00 +25°C° 0.2 mm 4 mps 752 mmHg 63%
23:00 +25°C° 0.2 mm 5 mps 752 mmHg 66%

21 July, Tuesday

Time Temperature Precipitation Wind Pressure Humidity
00:00 +23°C° 1.2 mm 4 mps 752 mmHg 73%
01:00 +22°C° 1.2 mm 4 mps 752 mmHg 79%
02:00 +21°C° 1.2 mm 3 mps 752 mmHg 86%
03:00 +21°C° 0.9 mm 3 mps 751 mmHg 84%
04:00 +21°C° 0.9 mm 2 mps 751 mmHg 83%
05:00 +22°C° 0.9 mm 1 mps 751 mmHg 82%
06:00 +24°C° 0.8 mm 2 mps 751 mmHg 78%
07:00 +25°C° 0.8 mm 2 mps 751 mmHg 74%
08:00 +26°C° 0.8 mm 3 mps 751 mmHg 70%
09:00 +27°C° 0.2 mm 3 mps 751 mmHg 63%
10:00 +29°C° 0.2 mm 3 mps 752 mmHg 55%
11:00 +30°C° 0.2 mm 4 mps 752 mmHg 48%
12:00 +30°C° 0.2 mm 4 mps 751 mmHg 48%
13:00 +30°C° 0.2 mm 5 mps 751 mmHg 48%
14:00 +30°C° 0.2 mm 5 mps 751 mmHg 48%
15:00 +30°C° 0 mm 5 mps 751 mmHg 48%
16:00 +30°C° 0 mm 5 mps 751 mmHg 48%
17:00 +30°C° 0 mm 4 mps 751 mmHg 47%
18:00 +29°C° 0 mm 4 mps 751 mmHg 52%
19:00 +28°C° 0 mm 3 mps 751 mmHg 57%
20:00 +26°C° 0 mm 3 mps 751 mmHg 62%
21:00 +26°C° 0 mm 3 mps 751 mmHg 67%
22:00 +25°C° 0 mm 3 mps 752 mmHg 71%
23:00 +24°C° 0 mm 3 mps 752 mmHg 76%
Show more